EHI
2 9 21 32 31 16 3 0 0 0 0 0 0 0 0 0 0 0 0 2 6 6 5 7 8 5 4 3 3 3 2 1 2 3 2 1 1 1 0 0 0 0 0 0 0 0 0 0 0
4 14 30 36 26 10 2 0 0 0 0 0 0 0 0 0 0 0 1 3 5 5 5 6 7 6 4 3 3 3 2 1 1 2 2 1 1 1 0 0 0 0 0 0 0 0 0 0 0
12 24 36 32 15 3 0 0 0 0 0 0 0 0 0 0 0 1 2 3 5 5 5 6 7 6 4 3 3 3 2 1 1 1 1 1 1 1 0 0 0 0 0 0 0 0 1 1 1
29 35 34 21 6 0 0 0 0 0 0 0 0 0 0 0 1 2 3 4 5 6 7 8 8 7 5 4 3 2 1 2 2 1 1 1 1 1 0 1 1 1 0 0 0 0 1 2 1
43 38 26 10 2 0 0 0 0 0 0 0 0 0 1 1 2 3 3 4 6 9 10 11 11 8 5 3 3 2 1 1 2 1 1 2 2 1 1 1 1 1 1 1 1 0 1 2 1
43 33 15 3 0 0 0 0 0 0 0 0 0 0 1 2 3 3 2 2 6 11 14 13 13 10 7 5 3 2 1 1 1 2 3 3 2 2 2 2 2 2 3 3 2 1 1 2 1
35 24 9 1 0 0 0 0 0 0 0 0 0 0 1 3 4 3 3 3 5 11 14 13 12 12 11 8 5 4 3 2 2 3 5 6 5 5 5 4 4 5 5 5 5 4 4 3 2
24 15 5 0 0 0 0 0 0 0 0 0 0 0 2 5 5 4 5 6 6 8 10 11 9 10 11 9 8 7 5 3 2 4 7 8 8 7 7 7 8 8 8 8 8 9 8 6 5
13 8 2 0 0 0 0 0 0 0 0 1 1 2 4 5 5 4 4 4 4 5 6 8 8 6 6 7 8 8 6 4 3 4 6 7 7 7 7 8 10 11 11 11 11 11 10 8 8
5 3 0 0 0 0 1 1 1 0 1 3 3 3 3 4 3 3 2 2 2 3 4 6 5 3 2 3 5 7 6 6 5 4 4 4 4 4 4 6 9 12 13 11 10 9 8 8 9
1 0 0 0 1 1 2 2 1 0 2 5 5 4 3 3 3 3 2 2 3 3 4 4 4 3 2 2 4 5 5 5 4 5 5 4 3 4 3 5 8 9 9 8 7 6 7 8 9
0 0 1 1 2 2 2 1 1 0 2 6 7 5 5 4 3 3 4 5 5 5 6 8 9 8 7 6 5 5 5 4 4 7 8 7 6 5 5 6 8 6 5 4 4 5 5 6 8
0 1 2 2 2 1 1 0 0 1 4 7 7 6 5 5 4 5 6 7 8 8 10 14 16 16 15 12 9 7 6 6 7 9 12 12 11 9 9 11 11 7 5 4 4 3 4 5 6
1 2 3 2 1 0 0 1 1 2 6 9 7 5 5 5 6 8 10 10 9 10 14 19 21 22 21 17 12 9 8 9 10 13 16 16 14 14 16 15 12 9 6 6 5 3 2 3 3
2 2 2 1 1 0 1 2 2 3 7 9 8 7 7 8 8 12 14 13 11 13 16 19 21 24 24 19 13 8 7 8 12 17 20 19 17 19 20 17 12 10 8 8 6 4 2 1 1
2 2 1 1 1 0 1 3 3 3 6 9 10 11 12 11 11 14 16 14 13 16 19 19 20 25 25 20 14 10 8 11 15 18 22 22 20 20 19 18 15 13 11 9 7 5 4 2 2
1 1 0 0 0 0 1 2 2 2 5 9 12 14 15 15 15 16 16 15 16 21 24 21 21 25 25 20 16 14 14 16 16 19 22 23 20 18 17 17 17 15 14 12 9 8 9 8 6
0 0 0 0 0 0 1 2 2 1 3 7 11 15 16 17 17 16 15 15 18 24 27 25 23 24 23 20 18 17 17 17 17 19 23 23 19 16 16 17 17 15 14 13 11 11 14 12 11
0 0 0 0 0 0 2 3 2 1 3 8 12 16 19 19 19 17 15 15 18 23 27 26 24 23 22 19 17 17 16 15 16 19 22 22 18 15 16 18 19 16 13 11 12 13 13 11 10
0 0 0 0 0 1 2 4 3 2 5 10 14 18 21 22 21 18 16 14 15 20 25 25 24 23 21 18 17 16 15 15 15 18 22 21 17 14 15 18 18 15 10 8 11 13 11 8 8
0 0 0 0 0 1 2 3 4 4 6 9 12 16 18 20 21 19 16 14 14 18 24 26 27 25 22 20 17 15 15 15 14 17 21 20 16 12 13 15 15 11 7 6 9 11 11 8 7
0 0 0 0 0 0 1 3 4 5 7 9 11 13 13 15 18 19 18 16 15 17 22 27 29 27 25 22 19 15 14 13 12 14 17 19 16 13 13 14 13 9 6 5 6 8 10 10 9
0 0 0 0 0 0 1 2 3 5 8 11 13 12 10 10 14 18 18 16 16 16 21 27 31 30 28 26 22 18 14 11 10 10 13 16 17 15 14 15 13 10 8 7 7 7 9 11 10
0 0 0 0 0 0 1 2 4 5 9 13 14 13 10 9 11 14 16 15 15 16 20 27 33 32 30 28 26 24 19 15 12 12 12 13 15 17 17 17 16 14 12 10 8 7 8 9 8
0 0 0 0 0 0 1 4 8 9 9 12 15 15 12 10 10 12 15 16 15 16 20 30 37 37 33 31 31 31 26 20 16 14 13 12 13 18 21 20 19 18 15 12 9 8 8 7 7
0 0 0 0 0 0 1 6 11 11 9 11 15 15 13 12 11 12 15 17 17 18 23 33 41 42 38 35 35 35 31 25 20 18 17 14 14 17 21 22 21 19 16 12 10 9 8 7 8
0 0 0 0 0 0 2 7 10 8 6 9 12 12 11 10 11 14 18 19 20 23 27 35 43 45 41 37 36 35 33 28 23 21 21 19 16 17 19 20 20 19 16 12 10 9 8 8 8
0 0 0 0 0 0 1 4 6 5 5 7 9 10 10 10 11 16 20 21 21 24 27 34 42 44 41 38 36 35 33 28 24 24 24 22 20 19 17 17 18 19 18 15 11 9 7 7 8
0 0 0 0 0 0 0 2 4 5 6 7 10 13 14 14 14 17 21 21 20 23 27 33 39 41 40 39 38 36 32 27 24 24 23 23 21 18 15 13 14 16 17 15 12 8 6 7 8
0 0 0 0 0 0 0 1 4 7 6 8 12 17 19 18 17 18 21 21 20 22 27 33 37 40 40 41 39 36 32 27 23 22 21 21 20 16 13 11 11 12 14 13 11 8 6 7 8
Wind_Speed
9 10 9 5 4 2 7 10 12 11 11 11 11 12 16 15 10 8 6 9 12 12 11 11 9 8 8 8 7 8 8 8 8 8 7 7 6 6 6 6 6 6 6 6 6 7 7 8 7
9 10 7 4 2 3 9 10 12 12 11 10 12 14 15 14 12 10 7 9 12 13 11 11 10 9 8 8 7 7 8 8 8 8 7 7 6 6 6 6 6 6 6 6 7 7 7 8 7
10 10 5 3 2 7 9 10 10 11 10 10 13 15 13 10 11 8 8 10 11 12 12 11 10 10 8 6 6 8 8 8 8 8 7 6 6 6 5 5 4 4 5 6 6 7 8 8 8
7 6 6 2 7 10 9 9 9 10 10 11 12 12 13 11 9 9 9 10 11 12 12 12 11 10 8 8 8 9 8 8 8 7 7 6 6 5 4 4 3 3 4 6 7 8 9 9 9
7 5 3 3 9 10 9 9 10 10 11 12 14 14 13 11 11 10 9 10 11 11 11 12 12 10 9 9 10 9 8 8 8 7 6 6 5 5 4 3 2 2 4 5 6 8 9 8 9
4 4 1 6 9 9 9 9 10 11 10 11 13 14 10 10 10 9 9 9 10 11 11 11 12 10 9 10 9 9 8 7 7 6 5 5 5 4 4 3 2 3 4 5 6 7 7 8 8
6 4 1 7 8 9 9 9 10 10 10 10 12 12 10 9 9 9 9 8 9 11 11 9 9 9 9 9 9 9 8 7 6 5 5 4 4 4 3 3 2 3 4 5 5 5 6 6 7
5 4 3 7 8 9 9 9 10 10 11 10 9 9 9 9 9 9 8 8 8 9 9 8 8 7 7 8 9 9 8 7 6 5 4 4 4 4 4 3 3 3 4 5 5 5 5 5 6
5 2 4 6 7 8 8 9 10 11 11 13 13 13 12 11 9 9 8 8 7 7 6 6 7 6 5 6 9 8 8 6 5 5 5 4 2 3 3 3 4 4 4 4 4 5 5 5 6
3 2 5 5 7 8 7 7 7 9 10 12 12 13 12 10 8 8 8 8 7 6 6 6 6 5 4 3 6 4 4 4 3 2 2 2 1 1 2 5 5 5 4 5 5 5 6 5 3
1 3 3 6 8 7 7 7 7 9 8 10 11 12 11 10 8 8 8 7 8 6 5 7 6 5 3 3 3 2 1 2 2 2 2 1 1 1 2 2 3 3 4 2 2 3 3 2 2
2 3 3 5 6 5 5 6 9 10 10 11 12 11 10 9 8 7 8 8 7 6 6 7 7 5 4 4 2 2 2 2 2 2 2 2 1 1 1 1 0 1 1 1 1 1 2 1 2
2 2 2 3 4 4 6 6 8 10 10 11 12 10 9 9 9 8 9 8 7 6 6 8 6 5 4 3 2 2 2 2 3 2 2 2 1 1 1 1 0 0 1 1 1 0 0 1 1
1 2 2 2 3 4 5 5 7 8 9 11 10 8 8 8 8 8 8 7 7 6 6 7 6 5 4 3 1 1 1 2 2 2 3 2 1 1 1 1 0 0 0 1 1 1 1 0 0
3 2 3 4 4 5 5 3 6 8 8 10 10 8 7 7 7 7 8 7 7 6 6 5 6 6 4 2 1 1 1 2 2 2 3 2 2 1 1 0 0 0 0 0 1 1 1 1 1
6 4 4 5 6 6 5 5 6 8 7 8 9 9 8 6 6 6 8 7 7 7 6 3 4 6 4 2 1 1 1 2 2 2 2 2 1 1 1 1 1 0 0 0 1 0 0 0 0
6 4 3 4 5 5 4 6 8 7 7 8 8 9 9 7 6 7 8 8 7 7 6 4 4 4 3 2 1 1 1 2 2 2 2 2 2 2 1 1 1 1 1 1 1 1 0 0 0
5 4 2 3 2 4 5 6 8 8 7 7 8 9 9 8 7 7 8 8 8 8 6 5 4 3 2 2 1 1 1 2 1 2 2 2 1 2 1 0 1 1 1 2 2 1 0 0 1
6 5 3 2 2 2 4 5 6 7 7 7 9 9 10 9 9 7 7 8 7 7 6 5 4 3 1 1 1 1 1 1 1 2 2 2 2 2 2 2 1 1 2 2 2 1 1 1 1
7 7 4 3 2 2 2 3 4 5 6 7 8 10 10 10 10 9 7 7 7 7 7 5 4 3 2 1 0 0 1 1 2 2 2 2 1 2 1 1 1 1 1 1 2 2 2 1 0
7 7 5 3 2 4 4 3 5 6 6 7 8 9 10 11 11 10 8 6 7 8 7 5 4 4 2 2 1 1 1 1 1 1 2 2 1 2 2 3 2 2 1 1 1 1 2 2 1
7 7 7 5 4 5 6 3 5 8 7 7 6 8 9 10 11 10 9 7 7 8 7 6 5 4 3 2 1 1 1 1 1 1 2 2 1 1 1 2 2 2 2 2 2 2 2 2 2
6 6 8 9 7 7 5 2 2 5 6 7 7 7 8 9 10 10 10 8 8 8 8 7 5 4 3 2 1 0 1 1 1 1 1 1 1 1 1 2 2 2 2 2 3 2 2 2 2
7 8 10 9 6 7 5 3 3 4 7 7 7 7 7 9 10 10 10 9 8 8 8 7 6 4 4 2 2 1 1 1 1 1 1 1 1 1 2 1 1 1 1 1 1 1 2 2 3
8 7 5 5 4 6 5 3 5 7 8 8 8 8 8 7 9 9 9 9 7 7 7 7 7 5 4 3 2 1 1 1 1 0 0 0 1 1 1 1 1 1 1 1 1 1 1 2 2
8 7 5 6 6 4 1 1 4 7 8 8 8 8 9 8 8 8 8 8 8 7 7 7 7 5 4 3 2 2 1 1 1 0 0 1 1 1 1 1 1 1 1 1 1 1 1 1 2
7 8 9 8 8 5 1 5 5 6 7 7 8 8 8 8 8 9 8 7 8 7 6 7 6 5 4 4 3 3 2 1 1 0 1 1 1 1 2 1 1 1 1 1 1 1 1 1 1
8 9 7 6 5 6 2 4 5 6 6 7 7 8 9 9 9 8 7 6 6 6 7 6 6 5 4 4 3 3 2 2 1 1 2 2 2 2 2 2 1 1 1 1 1 1 1 1 1
6 6 5 5 5 7 5 1 5 7 7 7 7 6 6 8 8 8 7 6 5 6 6 6 6 6 5 4 2 2 3 2 2 1 2 2 2 2 2 2 1 1 1 1 1 1 1 1 2
6 7 6 5 4 6 5 1 1 4 6 7 6 7 7 7 7 8 8 7 6 5 5 5 5 6 5 5 3 3 3 2 2 1 1 1 1 1 1 1 1 1 1 1 1 2 2 2 2
Wind_Direction
194 207 214 236 256 250 57 59 62 62 58 54 55 57 59 54 58 80 93 95 101 104 105 101 93 90 86 90 99 107 109 113 116 117 119 121 123 128 135 143 145 148 156 160 160 159 161 165 166
219 218 221 243 270 64 62 64 64 61 62 65 65 66 65 63 73 90 93 97 104 104 101 98 96 93 90 89 99 110 114 117 119 121 118 120 121 126 134 140 150 161 168 169 168 167 168 169 171
248 245 249 223 62 62 66 68 71 69 62 67 71 63 61 68 76 91 107 105 102 102 102 104 103 97 93 92 108 114 115 117 119 122 119 116 115 117 119 130 144 160 173 173 170 171 175 174 176
241 231 235 229 72 69 73 79 80 75 69 66 74 74 66 63 82 100 108 105 105 109 107 109 110 103 93 87 106 108 112 115 115 118 120 119 117 119 118 122 131 155 176 181 181 183 177 180 183
242 262 255 78 75 76 73 75 77 76 70 70 79 84 77 76 92 102 104 105 103 105 109 115 117 111 99 91 96 100 103 107 111 112 113 114 113 113 110 107 106 126 151 163 172 176 176 182 188
264 256 272 77 80 78 72 70 74 75 77 82 92 91 89 96 99 104 98 97 102 108 111 118 123 118 111 107 103 103 106 105 105 110 111 111 109 112 113 107 92 114 139 154 162 169 179 187 194
254 285 41 79 87 83 77 70 75 78 72 70 85 90 100 103 105 104 100 95 98 106 112 125 130 130 127 119 114 112 113 116 118 118 123 127 130 130 126 113 95 114 133 145 154 165 177 193 203
262 298 19 74 85 85 84 79 79 81 76 76 80 93 106 114 114 109 107 100 96 99 112 125 127 133 140 134 131 132 132 134 137 140 147 153 162 160 158 140 127 121 129 141 154 163 175 188 201
248 274 54 64 77 86 87 90 87 83 82 74 72 91 109 119 117 117 113 104 96 92 98 107 109 113 125 133 136 149 147 149 154 163 177 184 184 177 170 146 146 153 155 161 168 176 185 196 207
212 69 67 74 83 87 86 89 97 96 90 88 87 95 108 119 123 122 114 110 104 104 104 95 91 95 105 106 123 144 142 145 160 141 158 169 172 115 116 139 158 171 185 191 191 198 202 212 209
66 78 69 75 83 91 91 92 93 95 96 102 107 114 121 127 125 117 111 108 108 112 100 100 94 89 84 78 102 99 104 121 125 109 110 111 85 91 101 136 168 187 197 197 177 205 213 200 189
66 70 66 83 81 88 90 87 86 83 88 106 114 118 125 129 119 116 110 109 112 108 100 92 90 80 65 57 63 91 93 105 90 92 77 76 70 40 76 87 99 189 166 158 152 173 199 189 194
117 82 72 102 106 92 90 83 88 94 99 107 114 121 124 124 124 114 111 111 112 111 105 96 92 86 77 63 19 68 66 81 88 82 61 66 72 33 43 52 53 270 140 137 116 95 210 203 214
349 143 178 163 135 125 111 108 107 108 115 114 113 116 124 119 117 115 113 114 114 112 103 107 107 103 95 90 51 32 72 89 80 78 59 41 48 50 26 55 30 356 51 118 146 165 202 288 235
260 244 221 202 184 140 129 125 123 132 132 124 121 115 107 108 113 116 122 122 122 114 99 106 119 111 106 106 133 99 67 86 82 80 83 47 13 44 49 7 113 51 352 170 190 186 198 187 199
241 235 228 201 197 171 181 130 138 148 145 131 132 130 118 104 109 111 113 112 110 106 99 92 100 109 114 104 48 39 60 72 72 67 76 69 25 19 36 356 8 352 320 258 224 170 259 98 207
249 230 228 222 192 172 186 136 155 160 144 137 140 133 128 117 105 112 119 118 112 107 106 99 83 98 113 117 120 105 71 70 67 67 51 40 40 20 60 12 354 329 345 311 312 95 310 240 244
279 292 247 244 191 196 163 145 156 157 149 146 139 131 131 124 118 120 124 123 119 114 110 104 94 93 109 123 110 74 83 85 81 75 68 42 27 26 351 92 355 357 26 9 16 352 335 282 273
256 258 264 231 234 240 152 156 161 159 161 150 142 139 133 132 131 128 130 125 122 117 115 112 109 102 92 84 122 139 129 123 111 107 85 65 21 7 358 1 6 26 40 1 353 328 292 263 279
276 275 250 241 234 254 178 178 160 158 150 150 146 143 142 141 137 135 130 129 128 122 121 122 121 124 132 124 118 140 119 128 98 77 90 76 41 358 10 24 356 23 54 359 347 333 324 303 281
271 276 286 293 306 262 197 216 172 150 152 151 148 144 144 147 144 141 140 140 136 133 137 139 136 132 136 130 134 107 112 78 83 101 93 76 52 32 10 20 3 358 5 23 333 343 314 310 297
275 293 301 286 263 259 224 230 175 158 169 158 148 144 146 146 144 145 147 151 149 142 140 132 134 135 135 132 94 98 122 113 98 103 101 105 76 48 35 25 11 3 9 28 355 21 333 328 309
280 300 291 278 267 263 232 197 185 171 173 165 153 148 148 145 146 148 150 155 151 149 145 139 134 133 135 141 134 136 75 107 115 108 114 130 134 96 45 47 24 12 13 26 12 25 2 348 338
279 276 275 278 278 275 256 215 178 178 165 164 148 144 142 146 145 147 148 149 149 148 144 141 138 139 145 154 148 138 96 77 71 82 110 142 108 81 61 62 25 21 4 20 24 10 2 350 347
262 275 282 277 245 250 244 209 127 150 148 144 144 147 140 143 143 141 142 144 147 149 145 141 140 146 151 158 156 139 116 116 80 357 116 21 86 94 76 44 30 8 13 18 16 14 3 346 335
265 275 274 285 290 289 282 61 123 122 118 126 132 141 144 142 142 140 145 148 152 150 144 137 141 149 152 150 146 130 134 156 107 328 4 15 2 80 106 109 76 41 13 3 14 356 355 349 326
276 282 285 285 287 286 193 132 134 111 119 124 135 142 150 146 144 140 138 147 148 147 143 138 138 144 150 153 150 144 134 103 64 42 49 23 13 41 54 59 55 37 19 355 350 335 334 350 327
261 286 305 306 312 301 258 177 151 155 164 145 151 160 163 154 149 139 139 141 144 148 142 135 139 149 148 144 159 147 148 149 115 73 60 48 40 33 30 20 33 30 18 355 314 327 318 311 306
257 272 292 294 301 302 308 354 138 167 169 156 155 157 147 147 145 140 141 143 136 136 133 137 133 136 136 131 132 131 138 138 129 106 73 56 43 36 27 4 3 21 6 356 351 317 313 301 303
266 271 273 282 282 284 289 320 156 155 142 140 144 145 138 131 138 136 137 136 136 124 121 126 136 140 135 131 131 124 123 119 115 104 93 74 59 66 59 17 358 354 4 4 348 322 329 321 310